This is the latest recevied weather packets stored in our database for station/object KA9CBS. If no packets are shown the sender has not sent any weather packets the latest 10 day(s).
| Time | Temp. | Humidity | Pressure | Rain* | Wind** | Luminosity | Snow |
|---|---|---|---|---|---|---|---|
| 1787395030 | 18.89° C | 96% | 1016.9 hPa | 0 mm | - | 0 W/m² | - |
| 1787394727 | 18.89° C | 96% | 1016.9 hPa | 0 mm | - | 0 W/m² | - |
| 1787394422 | 18.89° C | 95% | 1016.8 hPa | 0 mm | - | 0 W/m² | - |
| 1787394117 | 18.89° C | 95% | 1016.9 hPa | 0 mm | - | 0 W/m² | - |
| 1787393811 | 18.89° C | 94% | 1016.9 hPa | 0 mm | - | 0 W/m² | - |
| 1787393507 | 19.44° C | 94% | 1016.9 hPa | 0 mm | - | 0 W/m² | - |
| 1787393203 | 19.44° C | 93% | 1016.9 hPa | 0 mm | - | 0 W/m² | - |
| 1787392898 | 19.44° C | 92% | 1017.1 hPa | 0 mm | - | 0 W/m² | - |
| 1787392596 | 20° C | 91% | 1017.1 hPa | 0 mm | - | 0 W/m² | - |
| 1787392292 | 20° C | 91% | 1017 hPa | 0 mm | - | 0 W/m² | - |
| 1787391987 | 20° C | 90% | 1017.5 hPa | 0 mm | - | 0 W/m² | - |
| 1787391684 | 20° C | 90% | 1017.6 hPa | 0 mm | - | 0 W/m² | - |
| 1787391380 | 20.56° C | 90% | 1017.7 hPa | 0 mm | - | 0 W/m² | - |
| 1787391076 | 20.56° C | 89% | 1017.4 hPa | 0 mm | - | 0 W/m² | - |
| 1787390772 | 21.11° C | 89% | 1016.7 hPa | 0 mm | - | 0 W/m² | - |
| 1787390469 | 21.11° C | 88% | 1016.1 hPa | 0 mm | - | 0 W/m² | - |
| 1787390168 | 21.11° C | 88% | 1016.8 hPa | 0 mm | - | 0 W/m² | - |
| 1787389864 | 21.67° C | 87% | 1017.9 hPa | 0 mm | - | 0 W/m² | - |
| 1787389560 | 21.11° C | 87% | 1018.7 hPa | 0 mm | - | 0 W/m² | - |
| 1787389257 | 20.56° C | 98% | 1018.6 hPa | 0 mm | - | 0 W/m² | - |
| 1787388952 | 20.56° C | 99% | 1018.2 hPa | 0 mm | - | 0 W/m² | - |
| 1787388648 | 20.56° C | 99% | 1018.3 hPa | 0 mm | - | 0 W/m² | - |
| 1787388344 | 20.56° C | 99% | 1018.5 hPa | 0 mm | - | 0 W/m² | - |
| 1787388039 | 20.56° C | 99% | 1018.2 hPa | 0 mm | - | 0 W/m² | - |
| 1787387736 | 20° C | 99% | 1018.1 hPa | 0 mm | - | 0 W/m² | - |
* Rain latest hour (hover to see other rain measurements)
** Current wind speed in m/s (hover to see current wind gust speed)